Vorticity
4 7 10 14 16 16 15 13 10 8 6 5 5 6 7 9 11 13 15 17 19 19 19 20 21 21 22 23 23 23 23 23 24 24 24 23 23 22 22 22 21 20 20 19 19 18 18 16 16 15 14 15 16 16 15 16 20 24 30 35 35 35 35 37 40 43 46 48 48
11 13 15 15 13 11 8 6 6 6 6 7 7 8 8 9 11 12 14 16 17 17 18 18 20 20 20 20 21 22 23 24 24 23 22 22 21 20 19 18 16 14 12 11 11 12 13 15 14 13 12 13 15 20 26 32 34 36 38 39 36 33 31 31 30 29 28 27 26
12 12 11 9 7 5 5 5 7 8 10 10 9 7 7 7 8 10 11 13 13 14 15 17 18 19 18 17 21 23 25 25 23 22 20 18 18 17 17 16 14 13 10 8 5 4 5 9 12 13 15 18 21 27 33 37 31 25 19 15 15 15 14 10 5 1 -2 -5 -6
10 8 6 4 4 5 7 10 11 12 11 9 6 5 5 6 8 9 10 10 11 12 13 15 16 18 18 17 20 23 26 26 23 20 17 14 13 13 13 14 14 14 13 12 8 5 3 2 6 10 15 23 29 33 34 31 27 20 12 2 2 3 4 4 -0 -4 -6 -9 -10
7 5 4 5 8 10 13 14 13 11 8 6 4 4 6 8 10 10 10 10 11 11 13 14 15 17 18 19 21 23 25 26 22 18 14 10 8 7 8 10 10 10 10 8 6 5 4 3 8 11 15 23 28 31 31 29 28 22 13 2 -5 -10 -12 -13 -13 -13 -12 -12 -12
5 5 7 10 13 15 14 13 10 7 5 4 5 7 9 11 12 12 11 11 10 11 12 13 15 17 18 20 23 24 25 25 22 18 14 9 5 3 4 6 9 10 11 10 6 2 0 1 3 6 10 18 25 28 26 22 17 10 3 -5 -9 -12 -12 -11 -9 -7 -5 -3 -1
6 8 11 15 15 13 10 7 5 4 4 6 8 10 11 12 13 12 11 10 10 11 12 14 16 18 19 20 22 24 24 23 21 18 15 10 6 4 3 5 7 10 14 16 13 9 5 4 4 6 9 15 20 21 18 13 7 2 -1 -3 -2 -2 0 2 4 6 8 11 14
8 11 14 14 12 8 4 2 2 4 5 7 10 12 13 13 13 12 11 10 11 12 13 14 17 18 18 18 19 20 20 18 17 16 15 12 9 7 5 4 4 7 10 15 14 11 9 7 9 10 11 13 14 13 12 10 7 4 2 1 2 4 6 9 12 14 16 18 20
11 13 12 10 5 2 -1 -1 1 3 6 9 12 13 13 14 12 11 11 12 12 13 14 17 18 18 17 18 18 18 17 14 13 12 12 12 11 10 9 7 5 5 6 8 10 10 9 8 9 10 10 9 7 5 3 1 0 -0 1 5 9 13 16 19 20 22 22 22 21
11 9 6 2 -0 -2 -2 -0 4 7 10 12 13 14 14 13 12 12 12 12 12 14 16 19 18 18 18 18 17 16 15 11 9 8 8 9 9 10 9 9 8 7 8 10 13 14 14 13 13 13 13 11 9 8 7 7 8 11 15 18 19 20 21 22 22 21 20 19 17
4 0 -2 -4 -3 -2 0 4 8 11 13 14 14 13 13 12 12 12 12 13 15 17 19 19 18 17 17 16 15 14 13 10 7 5 5 5 5 5 5 6 7 9 12 16 18 20 20 20 20 19 18 18 17 17 18 19 20 20 20 19 18 16 15 14 14 14 14 13 13
-1 -3 -4 -4 -1 2 6 10 12 14 15 15 13 13 12 12 12 13 13 16 18 19 19 18 18 16 15 14 13 12 10 8 6 5 4 3 3 3 3 4 5 8 11 15 18 20 21 22 21 21 20 20 20 19 19 19 19 18 17 15 13 12 10 9 9 9 10 10 11
1 0 1 2 5 8 12 14 15 15 14 14 12 12 11 12 13 14 16 18 19 18 17 17 16 16 15 13 12 11 10 10 9 9 8 8 8 8 8 8 8 10 12 14 16 18 19 20 20 20 20 19 19 19 18 17 16 16 15 13 13 12 11 10 10 10 10 10 11
6 7 7 9 12 14 15 16 15 14 13 12 11 11 11 12 14 16 18 19 18 17 15 14 14 15 15 13 12 12 13 14 15 15 15 15 15 14 13 13 13 13 13 14 15 16 17 17 17 16 16 16 16 15 15 14 14 13 12 12 12 12 12 11 11 11 12 12 12
10 10 11 13 15 16 16 15 14 13 12 11 10 10 11 13 15 17 19 19 17 15 14 13 14 14 14 13 13 13 14 16 17 18 17 16 16 15 14 14 14 13 13 13 13 13 13 12 11 11 11 10 10 10 10 11 11 11 10 10 10 11 11 11 11 12 12 12 12
10 10 12 13 14 15 15 14 13 12 11 10 10 10 12 14 16 17 18 18 15 14 14 15 14 13 13 12 12 12 13 14 15 15 14 13 12 12 11 11 11 11 11 11 11 11 11 10 9 8 8 8 8 9 9 9 9 10 10 10 10 10 10 11 11 11 11 11 11
8 10 10 11 12 13 13 13 12 11 10 9 10 11 13 14 15 17 17 15 13 13 13 15 14 13 11 10 10 11 12 13 13 12 10 9 8 7 8 8 8 8 8 8 9 9 9 9 9 8 8 9 9 9 10 10 10 10 10 10 10 11 11 11 11 11 11 11 11
8 9 10 11 11 11 11 11 11 10 10 9 11 13 14 15 16 16 15 13 12 12 13 14 14 13 11 9 9 10 12 12 11 9 7 5 5 4 4 5 5 5 6 7 8 8 8 8 8 8 8 8 9 9 9 9 10 10 10 10 11 11 11 12 12 12 12 12 11
7 9 10 11 10 10 9 9 9 9 9 10 12 14 16 17 16 13 11 8 9 11 14 16 15 13 11 9 9 10 11 11 8 6 4 3 3 3 3 3 3 4 5 6 7 7 7 7 7 7 7 8 8 8 9 9 9 10 10 11 11 11 11 11 12 12 12 12 12
8 8 9 10 9 9 8 8 8 8 10 12 14 16 17 17 14 10 7 5 7 10 15 18 16 13 10 8 8 10 11 9 6 3 2 2 2 2 2 2 2 3 5 6 7 7 7 7 7 7 7 7 8 8 9 9 10 10 11 11 11 11 11 12 12 12 12 12 13
8 8 8 9 9 9 8 8 8 10 11 14 17 18 18 16 11 7 4 4 6 11 15 18 15 12 9 7 8 9 9 7 4 2 0 0 0 0 -0 -0 0 2 4 6 7 7 7 7 7 7 7 7 8 9 10 10 11 11 11 11 11 12 12 12 13 13 13 13 13
8 8 9 9 9 9 9 10 10 12 14 18 20 20 18 14 9 6 4 5 8 13 16 17 13 11 9 8 9 8 7 5 3 1 -0 -1 -2 -2 -3 -3 -2 1 4 6 8 8 7 6 6 6 7 8 9 10 11 11 11 11 11 11 12 12 12 13 13 14 14 14 14
8 9 9 10 10 11 12 13 14 16 19 23 23 21 16 12 9 7 6 8 12 15 17 15 12 10 9 8 8 7 6 4 2 1 -0 -1 -3 -4 -4 -4 -2 2 5 7 7 7 6 6 6 7 8 9 10 11 12 12 12 11 11 11 12 12 13 13 13 14 14 13 13
9 9 10 11 12 13 15 16 18 21 24 26 22 18 14 11 9 8 9 11 15 16 16 13 12 11 10 8 8 7 5 3 1 0 -1 -2 -3 -4 -4 -3 0 4 6 7 6 6 6 6 7 8 10 11 12 12 12 12 11 11 11 11 12 12 12 13 13 13 13 12 12
10 10 11 12 13 15 16 18 21 24 25 24 20 16 13 11 10 10 12 15 16 16 15 14 13 13 12 10 8 7 6 4 2 1 -1 -2 -3 -4 -3 -1 3 5 6 5 5 5 7 8 9 10 11 12 12 12 12 11 11 10 11 11 11 12 12 12 12 12 12 11 11
10 11 12 13 14 16 18 21 22 23 23 21 18 15 12 9 10 11 13 16 16 15 15 14 15 14 13 10 8 7 6 5 4 2 0 -2 -3 -2 -1 2 5 6 5 3 4 6 8 11 12 13 13 13 12 12 11 10 10 10 10 11 11 11 11 11 11 11 11 11 11
11 12 13 15 15 17 20 21 22 22 21 19 16 12 10 9 10 11 12 13 13 13 14 14 14 13 12 10 8 7 7 6 4 2 0 -2 -2 -1 2 6 6 4 2 2 4 8 11 13 14 14 13 13 12 11 10 9 10 10 10 10 11 11 11 11 11 11 11 11 11
12 13 14 15 17 19 20 22 22 21 19 16 13 10 8 8 7 8 9 10 11 12 12 12 12 11 10 10 9 8 7 6 4 2 -0 -2 -0 3 6 8 4 2 0 2 7 11 13 14 14 14 13 12 10 10 9 9 9 9 10 10 10 10 11 11 11 11 11 11 11
13 14 15 16 18 20 21 22 20 18 16 13 10 8 6 6 6 7 9 10 11 11 10 9 9 9 10 10 9 9 8 6 4 2 1 1 4 7 7 5 0 -1 0 6 11 14 15 15 14 13 12 10 9 9 8 8 9 9 9 10 10 11 11 11 11 11 11 11 11
14 15 16 18 20 21 21 20 16 14 12 10 7 6 5 5 6 7 9 10 10 8 7 7 8 9 10 10 10 10 10 8 7 6 6 7 7 6 3 -1 -2 1 6 12 14 15 15 15 13 12 10 9 8 8 8 8 8 9 9 10 10 11 11 11 11 11 11 11 11
15 16 18 20 22 22 20 17 13 9 6 4 5 5 5 6 7 9 9 9 7 6 6 7 7 8 10 11 12 13 13 13 12 11 9 7 4 1 -1 -1 3 8 13 15 16 15 15 14 12 11 9 8 8 7 7 8 8 9 9 10 10 11 11 11 11 11 11 11 11
16 18 20 22 22 21 18 14 11 7 4 4 5 5 6 8 10 11 11 10 9 8 8 8 9 10 11 12 13 14 14 13 10 7 4 2 0 1 4 8 13 15 16 16 15 14 13 12 11 10 8 8 7 7 7 8 8 9 9 10 10 11 11 11 11 11 11 11 12
18 20 22 23 22 20 17 14 13 11 9 10 8 7 7 9 12 13 13 13 12 10 10 9 10 10 10 10 10 9 7 5 2 1 1 2 5 9 13 16 17 17 16 15 14 13 12 11 10 9 8 8 7 7 7 8 8 9 9 10 10 11 11 11 11 11 12 12 13
20 23 24 24 21 18 16 15 16 17 17 14 10 8 8 10 12 13 12 11 10 9 8 7 7 6 5 4 3 2 2 2 3 6 9 12 15 17 18 18 16 15 14 13 13 12 11 11 10 9 8 8 8 8 8 8 8 9 9 10 10 11 11 11 11 12 13 13 14
23 25 26 25 20 15 13 13 17 17 15 11 8 7 7 8 8 8 6 5 5 5 5 6 5 5 5 5 6 8 10 12 14 16 18 18 18 18 17 15 14 13 13 13 12 12 11 11 10 9 9 8 8 8 8 8 9 9 9 10 10 10 11 11 12 13 13 14 15
25 26 26 24 18 13 10 10 12 11 8 4 2 1 1 2 3 3 4 5 6 9 11 13 14 16 16 17 18 19 20 20 20 19 18 17 16 15 14 14 13 13 13 13 12 12 12 11 10 10 9 9 9 9 9 9 9 9 9 10 10 10 11 12 13 14 15 16 16
24 25 24 21 16 11 9 8 8 7 5 3 1 0 0 2 4 7 9 11 15 18 20 22 23 23 23 22 21 20 19 18 17 16 15 14 14 13 13 13 13 13 13 13 13 12 12 12 11 11 10 10 10 9 9 9 9 9 9 10 10 11 12 12 13 15 16 16 17
21 20 18 16 12 9 7 6 6 5 5 5 6 7 8 10 13 15 17 19 20 20 20 20 19 18 17 16 15 14 14 14 14 13 13 13 14 13 13 13 14 14 14 13 13 13 13 13 12 12 11 11 10 10 9 9 9 9 9 10 10 11 12 13 15 16 16 17 17
18 16 13 10 7 5 4 4 3 3 4 6 9 12 15 17 18 19 19 19 18 17 15 14 14 13 12 12 12 12 13 13 14 14 14 14 14 14 14 14 14 14 15 14 14 14 14 13 13 12 12 11 11 10 10 9 8 9 9 10 11 12 13 15 16 16 17 17 17
15 12 8 5 3 2 2 1 2 4 6 8 12 15 17 18 18 17 16 16 15 13 13 12 12 12 12 12 13 13 14 14 15 15 15 15 15 15 15 15 15 15 15 16 15 15 14 14 13 13 12 11 11 10 9 9 9 9 10 11 12 13 14 16 16 17 17 17 17
12 9 5 2 1 1 2 3 6 9 12 14 16 17 17 16 15 14 13 12 12 12 12 12 12 13 13 14 14 15 15 15 16 16 16 16 15 16 16 16 16 16 16 16 16 15 15 14 13 13 12 11 10 10 9 9 9 10 11 12 13 14 15 16 17 17 17 17 18
Height
3082 3081 3079 3078 3076 3074 3072 3070 3067 3065 3063 3060 3058 3056 3054 3051 3049 3046 3044 3042 3039 3037 3034 3032 3030 3028 3026 3024 3023 3022 3020 3018 3017 3016 3015 3014 3013 3012 3012 3011 3010 3010 3009 3008 3008 3008 3007 3007 3006 3005 3005 3004 3003 3002 3002 3001 3000 2999 2998 2998 2997 2996 2996 2995 2995 2994 2995 2995 2995
3079 3078 3076 3075 3073 3071 3069 3067 3064 3062 3059 3057 3055 3052 3050 3048 3045 3043 3040 3038 3036 3033 3031 3029 3027 3025 3023 3021 3020 3018 3017 3016 3014 3013 3012 3011 3011 3010 3009 3008 3008 3007 3007 3006 3006 3005 3004 3004 3003 3003 3002 3001 3001 3001 3000 2998 2997 2996 2995 2994 2993 2993 2993 2994 2994 2994 2994 2994 2993
3076 3074 3073 3071 3070 3068 3066 3064 3061 3059 3056 3054 3051 3049 3047 3044 3042 3039 3037 3034 3032 3030 3027 3025 3023 3022 3020 3018 3017 3015 3014 3013 3012 3011 3009 3009 3008 3007 3007 3006 3005 3005 3004 3004 3003 3002 3002 3002 3001 3001 3000 3000 2999 2998 2997 2995 2994 2993 2992 2991 2991 2991 2990 2990 2990 2990 2989 2989 2989
3073 3071 3070 3068 3066 3064 3062 3061 3058 3055 3053 3050 3048 3046 3043 3041 3038 3036 3033 3031 3029 3027 3024 3022 3020 3018 3017 3016 3014 3012 3011 3010 3009 3008 3007 3006 3005 3005 3004 3003 3003 3002 3002 3001 3001 3000 3000 2999 2999 2998 2998 2997 2997 2996 2994 2992 2992 2990 2989 2988 2988 2988 2987 2987 2987 2987 2986 2986 2985
3070 3068 3067 3065 3063 3062 3059 3057 3055 3052 3049 3047 3045 3042 3040 3037 3035 3032 3030 3028 3026 3023 3021 3019 3017 3016 3014 3012 3011 3010 3008 3007 3006 3006 3005 3004 3003 3002 3002 3001 3000 3000 2999 2999 2998 2997 2997 2997 2997 2997 2996 2996 2995 2993 2992 2991 2990 2988 2987 2987 2986 2986 2985 2985 2984 2984 2984 2983 2983
3067 3065 3064 3062 3061 3059 3057 3054 3052 3049 3046 3044 3042 3039 3037 3034 3032 3029 3027 3025 3022 3020 3018 3017 3015 3013 3011 3010 3008 3007 3006 3005 3004 3003 3002 3001 3001 3000 2999 2998 2998 2997 2997 2996 2995 2995 2995 2994 2994 2994 2993 2993 2992 2991 2989 2988 2987 2986 2985 2985 2984 2983 2983 2982 2982 2981 2981 2980 2980
3064 3062 3061 3059 3057 3055 3053 3050 3048 3046 3043 3041 3038 3036 3033 3031 3029 3026 3024 3022 3019 3017 3015 3013 3012 3010 3009 3007 3006 3005 3004 3002 3002 3001 3000 2999 2998 2997 2997 2996 2996 2995 2995 2994 2993 2993 2992 2992 2992 2991 2990 2990 2989 2987 2986 2985 2984 2983 2982 2982 2981 2980 2979 2978 2977 2977 2977 2976 2975
3062 3060 3058 3056 3054 3052 3050 3047 3045 3042 3040 3037 3035 3033 3031 3028 3025 3023 3021 3018 3016 3014 3012 3011 3009 3007 3006 3005 3003 3002 3001 3000 2999 2998 2998 2997 2996 2995 2994 2994 2993 2993 2992 2992 2991 2991 2990 2989 2989 2988 2987 2986 2985 2984 2983 2982 2981 2980 2979 2978 2977 2977 2976 2975 2974 2973 2972 2972 2971
3059 3057 3054 3052 3050 3048 3046 3044 3042 3039 3037 3034 3032 3030 3027 3025 3022 3020 3017 3015 3013 3011 3009 3008 3006 3005 3003 3002 3001 3000 2999 2998 2997 2996 2995 2995 2994 2993 2992 2992 2991 2990 2990 2989 2989 2988 2987 2987 2986 2985 2984 2983 2982 2981 2980 2979 2978 2977 2976 2975 2974 2973 2972 2972 2971 2970 2969 2968 2967
3055 3053 3051 3048 3046 3045 3043 3041 3039 3037 3034 3032 3029 3027 3024 3022 3019 3017 3014 3012 3010 3008 3007 3005 3003 3002 3001 2999 2998 2997 2997 2996 2995 2994 2993 2992 2992 2991 2990 2989 2989 2988 2987 2987 2986 2985 2984 2983 2982 2982 2981 2979 2978 2977 2976 2975 2974 2973 2972 2971 2970 2969 2969 2968 2967 2967 2966 2965 2965
3052 3050 3047 3045 3043 3041 3040 3038 3036 3033 3031 3028 3026 3023 3021 3018 3016 3013 3011 3009 3007 3005 3004 3002 3001 2999 2998 2997 2996 2995 2994 2993 2993 2992 2991 2990 2990 2989 2988 2987 2986 2986 2985 2984 2983 2982 2981 2981 2980 2979 2977 2977 2976 2974 2973 2972 2971 2970 2969 2968 2967 2967 2966 2965 2964 2964 2963 2962 2962
3049 3047 3044 3042 3040 3038 3037 3035 3033 3030 3028 3025 3022 3020 3017 3015 3012 3010 3008 3006 3005 3003 3001 3000 2998 2997 2996 2995 2994 2993 2992 2992 2991 2990 2989 2988 2987 2986 2985 2984 2983 2983 2982 2981 2980 2979 2978 2977 2977 2976 2975 2974 2973 2972 2971 2969 2968 2967 2967 2966 2965 2964 2963 2962 2962 2961 2960 2959 2959
3045 3043 3042 3040 3037 3036 3034 3032 3029 3027 3024 3022 3019 3017 3014 3012 3009 3007 3006 3004 3002 3001 2999 2997 2996 2995 2994 2993 2992 2991 2990 2989 2988 2987 2986 2985 2984 2983 2982 2982 2981 2980 2979 2978 2977 2976 2975 2974 2973 2972 2972 2971 2970 2969 2968 2967 2966 2965 2964 2963 2962 2962 2961 2960 2959 2958 2957 2957 2956
3042 3041 3039 3037 3035 3033 3030 3028 3026 3023 3021 3018 3016 3014 3011 3009 3007 3005 3003 3002 3000 2998 2997 2996 2994 2993 2992 2991 2990 2988 2987 2987 2986 2985 2984 2983 2982 2981 2980 2979 2978 2977 2976 2975 2974 2973 2972 2971 2970 2969 2968 2967 2967 2966 2965 2964 2963 2962 2961 2960 2960 2959 2958 2957 2956 2955 2954 2953 2953
3039 3037 3036 3034 3032 3029 3027 3024 3022 3020 3017 3015 3013 3011 3009 3007 3004 3002 3001 2999 2997 2996 2995 2994 2992 2991 2990 2989 2987 2986 2985 2984 2983 2982 2981 2980 2979 2978 2977 2976 2975 2974 2973 2972 2972 2971 2970 2969 2967 2967 2966 2965 2964 2963 2962 2961 2960 2959 2958 2957 2956 2955 2954 2954 2953 2952 2951 2950 2949
3036 3034 3032 3030 3027 3025 3023 3021 3018 3016 3014 3012 3010 3008 3006 3004 3002 3000 2999 2997 2996 2994 2993 2991 2990 2989 2987 2986 2985 2984 2983 2982 2981 2980 2979 2978 2977 2976 2975 2974 2973 2972 2971 2970 2969 2968 2967 2966 2965 2964 2963 2962 2961 2960 2959 2958 2957 2956 2955 2954 2953 2952 2951 2950 2949 2948 2947 2946 2945
3033 3031 3028 3026 3023 3021 3019 3017 3014 3012 3010 3008 3007 3005 3003 3001 2999 2998 2996 2995 2993 2992 2990 2989 2987 2987 2985 2984 2983 2982 2981 2980 2978 2977 2977 2975 2974 2973 2972 2972 2971 2970 2969 2968 2967 2966 2965 2964 2963 2962 2961 2959 2958 2957 2956 2955 2954 2953 2952 2951 2950 2949 2948 2947 2946 2945 2944 2943 2942
3029 3027 3024 3022 3019 3017 3014 3012 3010 3008 3006 3004 3003 3001 2999 2998 2997 2995 2993 2992 2991 2990 2988 2986 2985 2984 2983 2982 2981 2980 2978 2977 2976 2975 2974 2973 2972 2971 2970 2969 2968 2967 2966 2965 2964 2963 2962 2961 2960 2959 2958 2957 2956 2954 2953 2952 2951 2950 2949 2948 2947 2946 2945 2944 2943 2942 2941 2940 2939
3026 3023 3021 3018 3016 3013 3011 3008 3006 3004 3002 3000 2999 2997 2996 2994 2993 2992 2991 2989 2988 2987 2986 2984 2983 2982 2981 2980 2979 2977 2976 2975 2974 2973 2972 2971 2970 2969 2967 2967 2966 2965 2964 2963 2962 2961 2960 2959 2957 2956 2955 2954 2952 2952 2950 2949 2948 2947 2946 2945 2944 2943 2942 2941 2940 2939 2938 2937 2936
3022 3020 3017 3015 3012 3010 3007 3005 3003 3001 2998 2997 2995 2993 2992 2991 2990 2988 2987 2987 2985 2984 2983 2982 2981 2980 2979 2977 2977 2975 2974 2973 2972 2971 2970 2968 2967 2967 2965 2964 2963 2962 2961 2960 2959 2958 2957 2956 2955 2953 2952 2951 2950 2948 2947 2946 2945 2944 2943 2942 2941 2940 2939 2938 2937 2936 2935 2934 2933
3019 3017 3014 3012 3010 3007 3005 3002 3000 2997 2995 2993 2991 2990 2988 2987 2986 2985 2985 2984 2982 2982 2980 2979 2978 2977 2977 2975 2974 2973 2972 2971 2970 2968 2967 2966 2965 2964 2963 2962 2961 2960 2959 2958 2957 2956 2955 2953 2952 2951 2949 2948 2947 2946 2944 2943 2942 2941 2940 2939 2938 2937 2936 2935 2934 2933 2932 2931 2930
3016 3013 3011 3009 3007 3004 3002 2999 2997 2995 2992 2990 2988 2987 2985 2984 2983 2982 2982 2981 2980 2979 2978 2977 2976 2976 2974 2973 2972 2971 2969 2968 2967 2966 2965 2964 2963 2962 2961 2960 2959 2958 2957 2956 2954 2953 2952 2951 2949 2948 2947 2945 2944 2943 2942 2940 2939 2938 2937 2936 2935 2934 2933 2932 2931 2930 2929 2928 2927
3013 3011 3008 3006 3003 3001 2999 2997 2994 2992 2990 2987 2986 2984 2983 2982 2981 2980 2979 2978 2977 2976 2975 2975 2974 2973 2972 2970 2969 2968 2967 2966 2965 2964 2963 2962 2961 2960 2959 2958 2957 2955 2954 2953 2952 2950 2949 2948 2946 2945 2944 2942 2941 2940 2938 2937 2936 2934 2933 2932 2931 2930 2929 2928 2928 2927 2926 2925 2924
3010 3008 3005 3003 3001 2998 2996 2994 2992 2989 2987 2986 2984 2983 2982 2980 2979 2977 2976 2975 2975 2974 2973 2972 2972 2971 2969 2968 2967 2966 2964 2963 2962 2961 2960 2960 2958 2957 2956 2955 2954 2953 2951 2950 2949 2947 2946 2945 2943 2942 2941 2939 2938 2936 2935 2934 2932 2931 2930 2928 2927 2927 2926 2925 2924 2923 2922 2922 2921
3007 3005 3002 3000 2998 2996 2993 2991 2989 2987 2986 2984 2983 2982 2980 2978 2977 2975 2974 2973 2972 2972 2971 2971 2970 2969 2967 2965 2964 2963 2962 2961 2960 2959 2958 2957 2956 2955 2954 2952 2951 2950 2949 2947 2946 2944 2943 2942 2940 2939 2937 2936 2935 2933 2932 2930 2929 2927 2926 2925 2924 2923 2922 2921 2921 2920 2919 2918 2917
3004 3002 2999 2997 2995 2993 2991 2989 2987 2985 2984 2982 2981 2980 2978 2977 2975 2974 2973 2972 2970 2969 2969 2968 2967 2966 2965 2963 2962 2961 2959 2958 2957 2956 2955 2954 2953 2952 2951 2950 2948 2947 2946 2944 2943 2942 2940 2939 2937 2936 2934 2932 2931 2930 2928 2927 2926 2924 2923 2922 2921 2919 2918 2917 2917 2916 2916 2915 2914
3001 2998 2996 2994 2992 2990 2988 2987 2985 2983 2982 2980 2979 2978 2977 2975 2974 2972 2971 2969 2968 2967 2966 2965 2964 2963 2962 2961 2959 2958 2957 2956 2954 2953 2952 2951 2950 2949 2948 2947 2946 2944 2943 2941 2940 2938 2937 2936 2934 2933 2931 2930 2928 2927 2925 2924 2922 2921 2920 2919 2917 2916 2915 2914 2913 2912 2912 2911 2910
2997 2995 2993 2991 2989 2987 2986 2984 2982 2981 2979 2978 2977 2976 2975 2973 2972 2970 2968 2967 2966 2965 2964 2963 2962 2961 2959 2958 2957 2955 2954 2953 2952 2951 2949 2948 2947 2946 2945 2944 2943 2941 2940 2938 2937 2935 2934 2933 2931 2930 2928 2927 2925 2923 2922 2921 2919 2918 2917 2916 2914 2913 2912 2911 2910 2909 2908 2907 2906
2994 2992 2990 2988 2986 2984 2983 2982 2980 2978 2977 2976 2975 2974 2973 2971 2969 2967 2966 2965 2963 2962 2961 2960 2959 2957 2956 2955 2954 2952 2951 2950 2949 2948 2947 2945 2944 2943 2942 2941 2939 2938 2937 2935 2933 2932 2931 2929 2928 2927 2925 2923 2922 2920 2919 2917 2916 2915 2914 2912 2912 2910 2909 2908 2907 2905 2904 2903 2902
2991 2989 2987 2985 2983 2982 2980 2979 2977 2976 2975 2974 2973 2972 2971 2969 2967 2965 2964 2962 2961 2960 2958 2957 2956 2955 2954 2952 2951 2950 2949 2947 2946 2945 2943 2942 2941 2940 2939 2937 2936 2934 2933 2932 2930 2929 2927 2926 2925 2923 2922 2920 2918 2917 2916 2914 2913 2912 2911 2909 2908 2907 2906 2905 2903 2902 2901 2899 2898
2988 2987 2985 2983 2981 2979 2978 2977 2975 2974 2973 2972 2971 2969 2968 2966 2965 2963 2962 2960 2959 2957 2956 2955 2953 2952 2951 2950 2949 2947 2946 2945 2943 2942 2941 2939 2938 2937 2935 2934 2932 2931 2930 2928 2927 2926 2924 2923 2921 2920 2918 2917 2915 2914 2912 2911 2910 2909 2907 2907 2905 2904 2903 2901 2900 2899 2897 2896 2894
2986 2984 2982 2980 2978 2977 2976 2974 2973 2972 2971 2969 2968 2967 2965 2964 2962 2961 2959 2958 2956 2955 2953 2952 2951 2949 2948 2947 2946 2944 2943 2942 2940 2939 2937 2936 2934 2933 2932 2930 2929 2927 2926 2925 2923 2922 2921 2919 2918 2917 2915 2914 2912 2911 2909 2908 2907 2906 2905 2903 2902 2901 2899 2898 2897 2895 2894 2892 2891
2983 2981 2979 2978 2976 2975 2973 2972 2971 2970 2969 2967 2966 2964 2962 2961 2960 2958 2957 2955 2954 2952 2951 2949 2948 2947 2945 2944 2943 2942 2940 2939 2937 2936 2934 2932 2931 2929 2928 2927 2926 2924 2923 2922 2920 2919 2917 2916 2915 2913 2912 2911 2909 2908 2906 2905 2904 2903 2902 2900 2899 2898 2896 2895 2893 2892 2890 2889 2887
2981 2979 2977 2976 2974 2973 2972 2971 2970 2968 2967 2965 2963 2962 2961 2959 2957 2956 2955 2953 2952 2950 2949 2947 2946 2944 2943 2942 2940 2938 2937 2935 2934 2932 2930 2929 2927 2926 2925 2924 2922 2921 2920 2918 2917 2916 2914 2913 2912 2910 2909 2907 2906 2904 2903 2902 2901 2900 2898 2897 2896 2895 2893 2892 2890 2888 2887 2886 2884
2978 2976 2975 2973 2972 2971 2970 2969 2968 2966 2965 2963 2962 2960 2959 2957 2956 2954 2952 2951 2950 2948 2947 2945 2943 2942 2940 2938 2937 2935 2933 2932 2931 2929 2927 2926 2924 2923 2922 2921 2919 2918 2917 2915 2914 2912 2911 2910 2908 2907 2906 2904 2902 2901 2900 2899 2897 2896 2895 2894 2892 2891 2890 2888 2887 2885 2884 2882 2881
2976 2974 2972 2971 2970 2969 2968 2967 2966 2964 2963 2961 2960 2958 2957 2955 2953 2952 2950 2949 2947 2946 2944 2942 2941 2939 2937 2935 2934 2932 2931 2929 2927 2926 2925 2923 2922 2920 2919 2918 2917 2915 2913 2912 2910 2909 2908 2907 2905 2904 2902 2901 2899 2898 2897 2895 2894 2893 2892 2890 2889 2887 2886 2885 2883 2882 2880 2879 2877
2973 2972 2970 2969 2968 2967 2966 2965 2963 2962 2961 2959 2957 2956 2954 2952 2951 2949 2947 2946 2944 2942 2941 2939 2937 2936 2934 2932 2931 2929 2928 2926 2925 2923 2922 2920 2918 2917 2916 2914 2913 2912 2910 2909 2907 2906 2905 2903 2902 2900 2899 2897 2896 2895 2893 2892 2891 2889 2888 2887 2885 2884 2882 2881 2880 2878 2877 2875 2874
2971 2969 2968 2967 2966 2964 2963 2962 2961 2960 2958 2957 2955 2953 2952 2950 2948 2946 2944 2942 2940 2939 2937 2936 2934 2932 2931 2930 2928 2927 2925 2923 2922 2920 2918 2917 2915 2914 2912 2911 2910 2909 2907 2906 2904 2903 2902 2900 2899 2897 2896 2894 2892 2891 2890 2888 2887 2886 2885 2883 2882 2880 2879 2877 2876 2875 2873 2872 2871
2969 2967 2966 2965 2963 2962 2961 2960 2958 2957 2956 2954 2952 2951 2949 2947 2945 2943 2941 2939 2937 2936 2934 2933 2931 2930 2928 2927 2925 2924 2922 2921 2919 2917 2916 2914 2912 2911 2909 2908 2907 2905 2904 2903 2901 2900 2898 2897 2896 2894 2892 2891 2889 2888 2887 2885 2884 2882 2881 2880 2878 2877 2875 2874 2873 2871 2870 2869 2868
2967 2965 2964 2962 2961 2960 2959 2957 2956 2954 2952 2951 2949 2947 2945 2943 2942 2940 2938 2937 2935 2933 2932 2930 2929 2927 2926 2924 2922 2921 2920 2918 2916 2914 2913 2911 2909 2908 2906 2905 2903 2902 2901 2900 2898 2897 2895 2894 2892 2891 2890 2888 2886 2885 2883 2882 2880 2879 2877 2876 2875 2873 2872 2871 2869 2868 2867 2866 2865
2965 2963 2962 2961 2959 2958 2956 2955 2953 2952 2950 2948 2946 2944 2943 2941 2939 2938 2936 2935 2933 2931 2930 2928 2927 2925 2923 2922 2920 2918 2917 2915 2913 2912 2910 2908 2907 2905 2903 2902 2900 2899 2898 2897 2895 2894 2892 2891 2890 2888 2887 2885 2883 2882 2880 2878 2877 2876 2874 2872 2871 2870 2868 2867 2866 2865 2864 2862 2862